TimeEDT,TemperatureF,Dew PointF,Humidity,Sea Level PressureIn,VisibilityMPH,Wind Direction,Wind SpeedMPH,Gust SpeedMPH,PrecipitationIn,Events,Conditions,WindDirDegrees,DateUTC
12:54 AM,68.0,63.0,84,30.03,8.0,Calm,Calm,-,N/A,,Clear,0,2013-10-05 04:54:00
1:54 AM,66.9,63.0,87,30.03,7.0,Calm,Calm,-,N/A,,Scattered Clouds,0,2013-10-05 05:54:00
2:54 AM,66.9,64.0,90,30.02,7.0,Calm,Calm,-,N/A,,Mostly Cloudy,0,2013-10-05 06:54:00
3:54 AM,69.1,64.0,84,30.03,7.0,Calm,Calm,-,N/A,,Overcast,0,2013-10-05 07:54:00
4:54 AM,66.9,64.9,93,30.03,5.0,Calm,Calm,-,N/A,,Clear,0,2013-10-05 08:54:00
5:31 AM,66.2,64.4,94,30.04,1.8,Calm,Calm,-,N/A,,Clear,0,2013-10-05 09:31:00
5:41 AM,66.2,64.4,94,30.05,3.0,Calm,Calm,-,N/A,,Clear,0,2013-10-05 09:41:00
5:49 AM,64.4,64.4,100,30.05,1.8,Calm,Calm,-,N/A,,Clear,0,2013-10-05 09:49:00
5:54 AM,64.9,63.0,93,30.05,1.8,Calm,Calm,-,N/A,,Clear,0,2013-10-05 09:54:00
6:02 AM,64.4,62.6,94,30.05,2.5,Calm,Calm,-,N/A,,Clear,0,2013-10-05 10:02:00
6:06 AM,64.4,62.6,94,30.05,0.8,Calm,Calm,-,N/A,,Clear,0,2013-10-05 10:06:00
6:13 AM,64.4,62.6,94,30.05,0.2,Calm,Calm,-,N/A,Fog,Fog,0,2013-10-05 10:13:00
6:24 AM,64.4,62.6,94,30.05,1.5,Calm,Calm,-,N/A,,Partly Cloudy,0,2013-10-05 10:24:00
6:31 AM,64.4,62.6,94,30.05,0.8,Calm,Calm,-,N/A,,Mist,0,2013-10-05 10:31:00
6:40 AM,64.4,62.6,94,30.06,1.0,Calm,Calm,-,N/A,,Clear,0,2013-10-05 10:40:00
6:49 AM,64.4,62.6,94,30.06,1.0,Calm,Calm,-,N/A,,Mist,0,2013-10-05 10:49:00
6:54 AM,64.0,62.1,93,30.06,0.5,Calm,Calm,-,N/A,Fog,Fog,0,2013-10-05 10:54:00
7:13 AM,62.6,62.6,100,30.06,1.2,Calm,Calm,-,N/A,,Partly Cloudy,0,2013-10-05 11:13:00
7:28 AM,62.6,62.6,100,30.06,1.0,Calm,Calm,-,N/A,,Mist,0,2013-10-05 11:28:00
7:37 AM,62.6,62.6,100,30.07,0.5,Calm,Calm,-,N/A,Fog,Fog,0,2013-10-05 11:37:00
7:46 AM,64.4,62.6,94,30.06,1.2,Calm,Calm,-,N/A,,Partly Cloudy,0,2013-10-05 11:46:00
7:54 AM,64.0,63.0,96,30.07,2.5,Calm,Calm,-,N/A,,Partly Cloudy,0,2013-10-05 11:54:00
8:02 AM,64.4,64.4,100,30.07,3.0,Calm,Calm,-,N/A,,Clear,0,2013-10-05 12:02:00
8:54 AM,70.0,64.9,84,30.07,4.0,Calm,Calm,-,N/A,,Haze,0,2013-10-05 12:54:00
9:54 AM,73.9,66.0,76,30.08,5.0,Calm,Calm,-,N/A,,Haze,0,2013-10-05 13:54:00
10:54 AM,75.9,66.0,71,30.08,6.0,North,3.5,-,N/A,,Haze,10,2013-10-05 14:54:00
11:54 AM,79.0,66.0,64,30.07,9.0,NE,4.6,-,N/A,,Clear,50,2013-10-05 15:54:00
12:54 PM,81.0,66.0,60,30.05,10.0,North,3.5,-,N/A,,Clear,350,2013-10-05 16:54:00
1:54 PM,80.1,64.9,60,30.03,10.0,Calm,Calm,-,N/A,,Scattered Clouds,0,2013-10-05 17:54:00
2:54 PM,84.0,64.0,51,30.02,10.0,Calm,Calm,-,N/A,,Scattered Clouds,0,2013-10-05 18:54:00
3:54 PM,82.9,64.0,53,30.02,10.0,SW,3.5,-,N/A,,Partly Cloudy,230,2013-10-05 19:54:00
4:54 PM,80.1,68.0,67,30.02,7.0,Variable,5.8,-,N/A,,Scattered Clouds,0,2013-10-05 20:54:00
5:54 PM,75.0,66.0,73,30.03,8.0,SE,4.6,-,N/A,,Clear,130,2013-10-05 21:54:00
6:54 PM,71.1,64.9,81,30.04,8.0,Calm,Calm,-,N/A,,Clear,0,2013-10-05 22:54:00
7:54 PM,68.0,64.0,87,30.05,7.0,SE,4.6,-,N/A,,Clear,130,2013-10-05 23:54:00
8:15 PM,66.2,64.4,94,30.05,6.0,ESE,3.5,-,N/A,,Scattered Clouds,110,2013-10-06 00:15:00
8:24 PM,66.2,64.4,94,30.06,6.0,ESE,4.6,-,N/A,,Mostly Cloudy,110,2013-10-06 00:24:00
8:54 PM,66.0,64.0,93,30.06,5.0,Variable,4.6,-,N/A,,Overcast,0,2013-10-06 00:54:00
9:54 PM,66.0,63.0,90,30.07,5.0,Variable,4.6,-,N/A,,Overcast,0,2013-10-06 01:54:00
10:54 PM,66.0,63.0,90,30.08,4.0,Calm,Calm,-,N/A,,Overcast,0,2013-10-06 02:54:00
11:07 PM,64.4,62.6,94,30.08,4.0,ESE,3.5,-,N/A,,Overcast,110,2013-10-06 03:07:00
11:43 PM,64.4,64.4,100,30.08,2.5,Calm,Calm,-,N/A,,Overcast,0,2013-10-06 03:43:00
11:54 PM,64.9,64.0,97,30.08,2.5,Calm,Calm,-,N/A,,Overcast,0,2013-10-06 03:54:00